{"data":{"norad_id":65371,"intl_designator":"2025-190W","name":"STARLINK-34869","alt_names":[],"object_type":"PAYLOAD","status":"ACTIVE","operator":null,"country":"US","launch_date":"2025-08-28","launch_site_code":"AFETR","launch_vehicle":null,"mission":null,"orbit_class":"UNKNOWN","rcs_meters":null,"size_class":null,"mass_kg":null,"dimensions":null,"purposes":["comms"],"wikipedia_slug":null,"has_3d_model":false,"image_url":null,"decayed_at":null,"tle_current":{"epoch":"2026-05-25T02:17:42.775872Z","epoch_age_seconds":62915,"freshness":"FRESH","line1":"1 65371U 25190W   26145.09563398  .00014858  00000+0  51264-3 0  9996","line2":"2 65371  53.1571 173.2522 0001084  91.4729 268.6396 15.30208090 41455","mean_motion":15.3020809,"eccentricity":0.0001084,"inclination_deg":53.1571,"raan_deg":173.2522,"arg_perigee_deg":91.4729,"mean_anomaly_deg":268.6396,"bstar":0.00051264,"rev_number":4145,"period_min":94.104848184406,"perigee_km":474.44801349807,"apogee_km":475.93381498988,"semimajor_km":6853.327914244,"source":"CELESTRAK","updated_at":"2026-05-25T13:38:20.769450Z"}}}